User: anonymous   Login
Location: Newark
(34.9471°N, 136.1778°E)
Time: 22:39:13
(UTC+00:00)
Language:

SPROUT - Orbit

View from above orbital plane
View from above orbital plane
View from above satellite
View from above satellite

Ground track
Ground track

The orbit data is extracted from the following two-line orbital elements,

1 39770U 14029E   20052.51970808 +.00000410 +00000-0 +51173-4 0  9995
2 39770 097.8888 159.3769 0009136 359.6831 000.4381 14.87615500311671
Epoch (UTC): 21 February 2020 12:28:22
Eccentricity: 0.0009136
inclination: 97.8888°
perigee height: 599 km
apogee height: 612 km
right ascension of ascending node: 159.3769°
argument of perigee: 359.6831°
revolutions per day: 14.87615500
mean anomaly at epoch: 0.4381°
orbit number at epoch: 31167

The dashed part of the orbit path shows where the satellite is in the earth's shadow,  

DLR